Home   Weather   Bend   Past weeks

Flag for USA Past Weather in Bend, Oregon, USA — Yesterday and Last 2 Weeks

44 °F


Feels Like: 43 °F
Forecast: 36 / 55 °F
Wind: 3 mph from North

Location: Roberts Field Airport

Current Time: Oct 28, 2016 at 11:06:15 AM

Latest Report: Oct 28, 2016 at 9:56 AM

Visibility: 10 mi

Pressure: 30.02 "Hg (26.24 "Hg at 1103m altitude)

Humidity: 71%

Dew Point: 35 °F

Location of BendLocation

Past Weather in Bend — Graph


Bend Temperature Yesterday

Maximum temperature yesterday: 53 °F (at 1:56 AM)
Minimum temperature yesterday: 39 °F (at 9:56 PM)
Average temperature yesterday: 47 °F

High & Low Weather Summary for the Past Weeks

High66 °F (Oct 24, 2:56 PM)93% (Oct 24, 3:56 AM)30.38 "Hg (Oct 24, 3:56 AM)
Low27 °F (Oct 22, 6:56 AM)22% (Oct 19, 3:56 PM)29.36 "Hg (Oct 15, 2:56 PM)
Average49 °F66%29.87 "Hg
* Reported Oct 13 9:56 AM — Oct 28 9:56 AM, Bend, Weather by CustomWeather, © 2016

Note: Actual official high and low records may vary slightly from our data, if they occured in-between our weather recording intervals... More about our weather records


Bend Weather History for the Previous 24 Hours

Scroll right to see more
Time TempWeatherWind HumidityBarometerVisibility
9:56 AM
Fri, Oct 28
44 °FSunny.3 mph71%30.02 "Hg10 mi
8:56 AM38 °FSunny.5 mph83%30.02 "Hg10 mi
7:56 AM31 °FSunny.No wind89%30.04 "Hg10 mi
6:56 AM34 °FClear.No wind85%30.01 "Hg10 mi
5:56 AM37 °FClear.5 mph82%29.99 "Hg10 mi
4:56 AM39 °FClear.8 mph79%29.99 "Hg10 mi
3:56 AM37 °FClear.7 mph86%29.98 "Hg10 mi
2:56 AM37 °FClear.6 mph82%29.97 "Hg10 mi
1:56 AM38 °FClear.7 mph83%29.96 "Hg10 mi
12:56 AM38 °FClear.6 mph86%29.96 "Hg10 mi
11:56 PM
Thu, Oct 27
40 °FClear.6 mph83%29.94 "Hg10 mi
10:56 PM42 °FPassing clouds.7 mph76%29.95 "Hg10 mi
9:56 PM39 °FPassing clouds.No wind86%29.94 "Hg10 mi
8:56 PM46 °FClear.8 mph73%29.91 "Hg10 mi
7:56 PM42 °FClear.3 mph82%29.92 "Hg10 mi
6:56 PM45 °FClear.5 mph76%29.90 "Hg10 mi
5:56 PM47 °FSunny.7 mph77%29.88 "Hg10 mi
4:56 PM49 °FScattered clouds.8 mph74%29.87 "Hg10 mi
3:56 PM49 °FPartly sunny.No wind74%29.87 "Hg10 mi
2:59 PM47 °FCloudy.7 mph83%29.89 "Hg10 mi
2:03 PM47 °FLight rain. Low clouds.8 mph83%29.90 "Hg10 mi
12:56 PM46 °FLight rain. Mostly cloudy.6 mph86%29.90 "Hg10 mi
11:56 AM46 °FLight rain. Fog.No wind86%29.92 "Hg4 mi
Weather by CustomWeather, © 2016

See weather overviewHow to use our weather pages